EW8291 Weather Reports


Display with metric or nautical units.
time (UTC)temp
F
wind
direction
speed
MPH
gust
MPH
rain 1hr
in
rain 24hr
in
rain mn
in
humidity
%
barometer
mb
20180919164608 71 51 3.0 6.0 0.00 0.00 0.00 100 1020.0
20180919164108 71 45 2.0 3.0 0.00 0.00 0.00 100 1020.0
20180919163608 72 56 3.0 5.0 0.00 0.00 0.00 100 1019.0
20180919163108 72 45 2.0 3.0 0.00 0.00 0.00 100 1019.0
20180919162608 73 55 2.0 3.0 0.00 0.00 0.00 100 1019.0
20180919162108 73 68 1.0 3.0 0.00 0.00 0.00 100 1019.0
20180919161608 74 59 0.0 5.0 0.00 0.00 0.00 100 1019.0
20180919161108 74 24 2.0 5.0 0.00 0.00 0.00 100 1019.0
20180919160608 75 50 3.0 5.0 0.00 0.00 0.00 100 1019.0
20180919160108 75 22 2.0 5.0 0.00 0.00 0.00 100 1019.0
20180919155609 76 43 2.0 3.0 0.00 0.00 0.00 100 1019.0
20180919155108 75 0 1.0 2.0 0.00 0.00 0.00 100 1019.0
20180919154608 76 0 2.0 2.0 0.00 0.00 0.00 100 1019.0
20180919154108 76 0 2.0 3.0 0.00 0.00 0.00 100 1019.0
20180919153608 76 338 0.0 1.0 0.00 0.00 0.00 100 1019.0
20180919153108 76 338 0.0 3.0 0.00 0.00 0.00 100 1019.0
20180919152608 76 9 1.0 3.0 0.00 0.00 0.00 100 1019.0
20180919152108 77 0 2.0 3.0 0.00 0.00 0.00 100 1019.0
20180919151608 77 22 1.0 3.0 0.00 0.00 0.00 100 1019.0
20180919151109 77 28 1.0 3.0 0.00 0.00 0.00 100 1019.0
20180919150608 77 22 3.0 5.0 0.00 0.00 0.00 100 1019.0
20180919150108 77 22 0.0 0.0 0.00 0.00 0.00 100 1019.0
20180919145608 77 13 0.0 1.0 0.00 0.00 0.00 100 1019.0
20180919145108 77 350 3.0 3.0 0.00 0.00 0.00 100 1019.0
20180919144608 77 338 2.0 3.0 0.00 0.00 0.00 100 1019.0
20180919144108 77 0 2.0 5.0 0.00 0.00 0.00 100 1019.0
20180919143608 77 6 1.0 3.0 0.00 0.00 0.00 100 1019.0
20180919143109 75 22 1.0 2.0 0.00 0.00 0.00 100 1019.0
20180919142609 76 248 1.0 5.0 0.00 0.00 0.00 100 1019.0
20180919142108 78 282 2.0 5.0 0.00 0.00 0.00 100 1018.0
20180919141608 77 225 2.0 5.0 0.00 0.00 0.00 100 1018.0
20180919141108 76 273 1.0 2.0 0.00 0.00 0.00 100 1018.0
20180919140608 76 248 2.0 5.0 0.00 0.00 0.00 100 1018.0
20180919140109 76 243 2.0 5.0 0.00 0.00 0.00 100 1018.0
20180919135608 75 251 2.0 3.0 0.00 0.00 0.00 100 1018.0
20180919135108 74 207 2.0 5.0 0.00 0.00 0.00 100 1018.0
20180919134608 74 248 3.0 3.0 0.00 0.00 0.00 100 1018.0
20180919134108 74 273 3.0 5.0 0.00 0.00 0.00 100 1018.0
20180919133608 75 259 3.0 6.0 0.00 0.00 0.00 100 1018.0
20180919133108 76 248 4.0 7.0 0.00 0.00 0.00 100 1018.0
20180919132608 74 252 3.0 6.0 0.00 0.00 0.00 100 1018.0
20180919132107 75 206 2.0 7.0 0.00 0.00 0.00 100 1018.0
20180919131608 75 213 5.0 7.0 0.00 0.00 0.00 100 1018.0
20180919131108 75 221 4.0 7.0 0.00 0.00 0.00 100 1018.0
20180919130608 76 273 3.0 6.0 0.00 0.00 0.00 100 1018.0
20180919130108 75 254 4.0 7.0 0.00 0.00 0.00 100 1018.0
20180919125608 75 305 5.0 7.0 0.00 0.00 0.00 100 1018.0
20180919125108 76 245 2.0 7.0 0.00 0.00 0.00 100 1018.0
20180919124608 76 205 3.0 8.0 0.00 0.00 0.00 100 1018.0
20180919124108 77 234 5.0 7.0 0.00 0.00 0.00 100 1018.0
20180919123608 77 246 5.0 7.0 0.00 0.00 0.00 100 1018.0
20180919123109 76 280 5.0 6.0 0.00 0.00 0.00 100 1018.0
20180919122607 76 235 6.0 8.0 0.00 0.00 0.00 100 1018.0
20180919122108 75 218 4.0 6.0 0.00 0.00 0.00 100 1018.0
20180919121609 75 265 3.0 10.0 0.00 0.00 0.00 100 1018.0
20180919121108 76 248 5.0 7.0 0.00 0.00 0.00 100 1018.0
20180919120609 76 252 4.0 7.0 0.00 0.00 0.00 100 1018.0
20180919120108 76 208 5.0 7.0 0.00 0.00 0.00 100 1018.0
20180919115608 76 265 4.0 7.0 0.00 0.00 0.00 100 1018.0
20180919115108 76 276 2.0 5.0 0.00 0.00 0.00 100 1018.0
20180919114608 76 208 3.0 6.0 0.00 0.00 0.00 100 1018.0
20180919114108 74 294 0.0 3.0 0.00 0.00 0.00 100 1018.0
20180919113608 74 278 4.0 7.0 0.00 0.00 0.00 100 1019.0
20180919113108 76 302 3.0 5.0 0.00 0.00 0.00 100 1019.0
20180919112608 76 188 2.0 5.0 0.00 0.00 0.00 100 1019.0
20180919112108 76 213 5.0 7.0 0.00 0.00 0.00 100 1019.0
20180919111608 75 180 1.0 3.0 0.00 0.00 0.00 100 1019.0
20180919111108 76 106 3.0 5.0 0.00 0.00 0.00 100 1019.0
20180919110608 76 128 3.0 5.0 0.00 0.00 0.00 100 1020.0
20180919110108 76 176 3.0 6.0 0.00 0.00 0.00 100 1020.0
20180919105608 76 156 3.0 5.0 0.00 0.00 0.00 100 1020.0
20180919105108 77 202 3.0 6.0 0.00 0.00 0.00 100 1021.0
20180919104608 76 85 2.0 6.0 0.00 0.00 0.00 100 1021.0
20180919104107 77 267 3.0 7.0 0.00 0.00 0.00 100 1021.0
20180919103608 77 239 1.0 5.0 0.00 0.00 0.00 100 1021.0
20180919103108 77 3 1.0 3.0 0.00 0.00 0.00 100 1021.0
20180919102607 75 289 4.0 6.0 0.00 0.00 0.00 100 1021.0
20180919102108 78 265 1.0 5.0 0.00 0.00 0.00 100 1021.0
20180919101608 77 302 3.0 5.0 0.00 0.00 0.00 100 1021.0
20180919101108 75 185 4.0 7.0 0.00 0.00 0.00 100 1021.0
20180919100608 75 257 2.0 5.0 0.00 0.00 0.00 100 1020.0
20180919100108 75 251 3.0 6.0 0.00 0.00 0.00 100 1020.0
20180919095608 74 248 3.0 6.0 0.00 0.00 0.00 100 1020.0
20180919095108 74 248 3.0 5.0 0.00 0.00 0.00 100 1020.0
20180919094608 73 251 3.0 5.0 0.00 0.00 0.00 100 1020.0
20180919094108 73 248 3.0 5.0 0.00 0.00 0.00 100 1020.0
20180919093607 73 259 4.0 7.0 0.00 0.00 0.00 100 1020.0
20180919093108 73 264 5.0 7.0 0.00 0.00 0.00 100 1020.0
20180919092608 73 266 5.0 7.0 0.00 0.00 0.00 100 1020.0
20180919092108 73 268 2.0 5.0 0.00 0.00 0.00 100 1021.0
20180919091108 73 248 2.0 5.0 0.00 0.00 0.00 100 1021.0
20180919090608 73 226 4.0 6.0 0.00 0.00 0.00 100 1021.0
20180919090108 74 203 2.0 6.0 0.00 0.00 0.00 100 1021.0
20180919085608 76 116 2.0 6.0 0.00 0.00 0.00 100 1021.0
20180919085108 74 163 3.0 7.0 0.00 0.00 0.00 100 1021.0
20180919084608 75 292 0.0 3.0 0.00 0.00 0.00 100 1021.0
20180919084108 75 219 1.0 3.0 0.00 0.00 0.00 100 1021.0
20180919083608 74 189 2.0 3.0 0.00 0.00 0.00 100 1022.0
20180919083115 72 225 3.0 5.0 0.00 0.00 0.00 100 1022.0
20180919082608 72 229 0.0 5.0 0.00 0.00 0.00 100 1022.0
20180919082108 72 184 2.0 5.0 0.00 0.00 0.00 100 1022.0
20180919081607 71 211 0.0 2.0 0.00 0.00 0.00 100 1022.0
20180919081108 71 112 1.0 3.0 0.00 0.00 0.00 100 1022.0
20180919080608 72 180 3.0 5.0 0.00 0.00 0.00 100 1023.0
20180919080108 72 122 2.0 5.0 0.00 0.00 0.00 100 1023.0
20180919075608 72 213 2.0 5.0 0.00 0.00 0.00 100 1023.0
20180919075108 72 162 3.0 5.0 0.00 0.00 0.00 100 1023.0
20180919074608 72 151 2.0 3.0 0.00 0.00 0.00 100 1023.0
20180919074108 72 189 3.0 5.0 0.00 0.00 0.00 100 1023.0
20180919073608 72 159 5.0 7.0 0.00 0.00 0.00 100 1023.0
20180919073108 72 196 4.0 7.0 0.00 0.00 0.00 100 1023.0
20180919072610 72 167 4.0 6.0 0.00 0.00 0.00 100 1023.0
20180919072107 72 137 3.0 6.0 0.00 0.00 0.00 100 1023.0
20180919071608 72 133 4.0 6.0 0.00 0.00 0.00 100 1023.0
20180919071108 72 112 4.0 7.0 0.00 0.00 0.00 100 1023.0
20180919070607 71 130 3.0 5.0 0.00 0.00 0.00 100 1022.0
20180919070108 71 135 1.0 3.0 0.00 0.00 0.00 100 1022.0
20180919065608 71 68 2.0 6.0 0.00 0.00 0.00 100 1022.0
20180919065108 70 112 0.0 3.0 0.00 0.00 0.00 100 1022.0
20180919064610 69 202 1.0 2.0 0.00 0.00 0.00 100 1022.0
20180919064108 69 209 2.0 5.0 0.00 0.00 0.00 100 1022.0
20180919063608 68 158 2.0 3.0 0.00 0.00 0.00 100 1022.0
20180919063108 67 158 3.0 5.0 0.00 0.00 0.00 100 1022.0
20180919062607 67 158 3.0 5.0 0.00 0.00 0.00 100 1022.0
20180919062108 66 167 2.0 3.0 0.00 0.00 0.00 100 1021.0
20180919061608 65 158 1.0 3.0 0.00 0.00 0.00 100 1021.0
20180919061107 64 171 3.0 3.0 0.00 0.00 0.00 100 1021.0
20180919060607 64 173 1.0 3.0 0.00 0.00 0.00 100 1021.0
20180919060107 63 202 2.0 3.0 0.00 0.00 0.00 100 1021.0
20180919055608 62 172 2.0 5.0 0.00 0.00 0.00 100 1021.0
20180919055107 62 175 2.0 3.0 0.00 0.00 0.00 100 1020.0
20180919054608 62 180 2.0 3.0 0.00 0.00 0.00 100 1020.0
20180919054107 61 207 2.0 3.0 0.00 0.00 0.00 100 1020.0
20180919053607 61 158 2.0 5.0 0.00 0.00 0.00 100 1022.0
20180919053108 60 183 2.0 3.0 0.00 0.00 0.00 100 1022.0
20180919052608 60 202 3.0 3.0 0.00 0.00 0.00 100 1022.0
20180919052107 59 202 2.0 5.0 0.00 0.00 0.00 100 1021.0
20180919051608 59 213 3.0 5.0 0.00 0.00 0.00 100 1021.0
20180919051108 59 202 2.0 3.0 0.00 0.00 0.00 100 1021.0
20180919050608 59 202 3.0 5.0 0.00 0.00 0.00 100 1021.0
20180919050108 59 221 3.0 5.0 0.00 0.00 0.00 100 1021.0
20180919045608 60 236 4.0 5.0 0.00 0.00 0.00 100 1021.0
20180919045108 59 158 3.0 3.0 0.00 0.00 0.00 100 1020.0
20180919044607 61 213 3.0 6.0 0.00 0.00 0.00 100 1020.0
20180919044108 61 152 5.0 7.0 0.00 0.00 0.00 100 1020.0
20180919043608 60 209 4.0 7.0 0.00 0.00 0.00 100 1020.0
20180919043107 61 193 4.0 6.0 0.00 0.00 0.00 100 1020.0
20180919042608 61 158 3.0 5.0 0.00 0.00 0.00 100 1020.0
20180919042108 61 163 3.0 6.0 0.00 0.00 0.00 100 1020.0
20180919041608 62 163 4.0 6.0 0.00 0.00 0.00 100 1020.0
20180919041113 62 169 4.0 7.0 0.00 0.00 0.00 100 1020.0
20180919040608 62 133 5.0 7.0 0.00 0.00 0.00 100 1020.0
20180919040108 62 135 5.0 7.0 0.00 0.00 0.00 100 1020.0
20180919035608 62 146 3.0 7.0 0.00 0.00 0.00 100 1020.0
20180919035108 62 153 5.0 7.0 0.00 0.00 0.00 100 1020.0
20180919034608 61 140 5.0 7.0 0.00 0.00 0.00 100 1020.0
20180919034108 61 132 5.0 7.0 0.00 0.00 0.00 100 1020.0
20180919033607 61 158 3.0 6.0 0.00 0.00 0.00 100 1020.0
20180919033108 61 168 3.0 6.0 0.00 0.00 0.00 100 1020.0
20180919032607 61 165 4.0 7.0 0.00 0.00 0.00 100 1020.0
20180919032108 61 152 5.0 7.0 0.00 0.00 0.00 100 1020.0
20180919031608 61 140 3.0 7.0 0.00 0.00 0.00 100 1020.0
20180919031107 60 158 3.0 5.0 0.00 0.00 0.00 100 1020.0
20180919030608 59 158 2.0 3.0 0.00 0.00 0.00 100 1020.0
20180919030108 59 158 2.0 3.0 0.00 0.00 0.00 100 1020.0
20180919025608 59 159 2.0 3.0 0.00 0.00 0.00 100 1020.0
20180919025108 59 172 3.0 3.0 0.00 0.00 0.00 100 1020.0
20180919024608 59 180 3.0 5.0 0.00 0.00 0.00 100 1020.0
20180919024108 60 180 3.0 5.0 0.00 0.00 0.00 100 1020.0
20180919023608 59 180 2.0 3.0 0.00 0.00 0.00 100 1020.0
20180919023108 60 180 2.0 3.0 0.00 0.00 0.00 100 1020.0
20180919022607 60 177 2.0 3.0 0.00 0.00 0.00 100 1020.0
20180919022108 61 175 3.0 5.0 0.00 0.00 0.00 100 1020.0
20180919021608 61 180 2.0 5.0 0.00 0.00 0.00 100 1020.0
20180919021107 63 202 3.0 5.0 0.00 0.00 0.00 100 1020.0
20180919020607 63 186 4.0 6.0 0.00 0.00 0.00 100 1020.0
20180919020108 63 165 3.0 7.0 0.00 0.00 0.00 100 1020.0
20180919015608 63 207 5.0 7.0 0.00 0.00 0.00 100 1020.0
20180919015107 62 212 5.0 7.0 0.00 0.00 0.00 100 1019.0
20180919014607 62 207 6.0 7.0 0.00 0.00 0.00 100 1019.0
20180919014108 62 207 5.0 7.0 0.00 0.00 0.00 100 1019.0
20180919013608 63 191 4.0 7.0 0.00 0.00 0.00 100 1019.0
20180919013107 62 179 3.0 5.0 0.00 0.00 0.00 100 1019.0
20180919012607 62 201 3.0 6.0 0.00 0.00 0.00 100 1019.0
20180919012108 62 153 3.0 5.0 0.00 0.00 0.00 100 1019.0
20180919011607 62 174 3.0 6.0 0.00 0.00 0.00 100 1019.0
20180919011107 62 165 4.0 6.0 0.00 0.00 0.00 100 1019.0
20180919010608 63 185 5.0 7.0 0.00 0.00 0.00 100 1018.0
20180919010107 62 191 5.0 7.0 0.00 0.00 0.00 100 1018.0
20180919005607 63 188 3.0 5.0 0.00 0.00 0.00 100 1018.0
20180919005108 63 193 3.0 7.0 0.00 0.00 0.00 100 1018.0
20180919004613 63 176 5.0 6.0 0.00 0.00 0.00 100 1018.0
20180919004107 63 181 3.0 5.0 0.00 0.00 0.00 100 1018.0
20180919003607 64 171 3.0 6.0 0.00 0.00 0.00 100 1019.0
20180919003108 63 157 4.0 5.0 0.00 0.00 0.00 100 1019.0
20180919002607 64 169 5.0 6.0 0.00 0.00 0.00 100 1019.0
20180919002107 64 166 3.0 5.0 0.00 0.00 0.00 100 1020.0
20180919001607 63 153 3.0 5.0 0.00 0.00 0.00 100 1020.0
20180919001108 63 142 3.0 6.0 0.00 0.00 0.00 100 1020.0
20180919000608 64 142 3.0 6.0 0.00 0.00 0.00 100 1020.0
20180919000109 64 180 3.0 5.0 0.00 0.00 0.00 100 1020.0
20180918235608 63 149 3.0 6.0 0.00 0.00 0.00 100 1020.0
20180918235108 63 162 2.0 5.0 0.00 0.00 0.00 100 1020.0
20180918234608 63 175 3.0 5.0 0.00 0.00 0.00 100 1020.0
20180918234108 63 172 3.0 5.0 0.00 0.00 0.00 100 1020.0
20180918233607 63 190 3.0 6.0 0.00 0.00 0.00 100 1020.0
20180918233107 63 201 4.0 5.0 0.00 0.00 0.00 100 1020.0
20180918232608 64 197 3.0 6.0 0.00 0.00 0.00 100 1020.0
20180918232107 64 201 3.0 6.0 0.00 0.00 0.00 100 1019.0
20180918231607 64 164 3.0 7.0 0.00 0.00 0.00 100 1019.0
20180918231107 64 151 3.0 6.0 0.00 0.00 0.00 100 1019.0
20180918230611 64 155 3.0 5.0 0.00 0.00 0.00 100 1019.0
20180918230108 64 153 3.0 6.0 0.00 0.00 0.00 100 1019.0
20180918225608 64 158 3.0 6.0 0.00 0.00 0.00 100 1019.0
20180918225108 65 146 4.0 7.0 0.00 0.00 0.00 100 1019.0
20180918224607 65 144 5.0 8.0 0.00 0.00 0.00 100 1019.0
20180918224108 64 130 3.0 7.0 0.00 0.00 0.00 100 1019.0
20180918223607 65 152 3.0 6.0 0.00 0.00 0.00 100 1019.0
20180918223108 64 140 4.0 6.0 0.00 0.00 0.00 100 1019.0
20180918222608 65 153 4.0 7.0 0.00 0.00 0.00 100 1019.0
20180918222107 64 170 3.0 6.0 0.00 0.00 0.00 100 1018.0
20180918221609 65 152 3.0 7.0 0.00 0.00 0.00 100 1018.0
20180918221109 65 163 4.0 7.0 0.00 0.00 0.00 100 1018.0
20180918220608 65 160 4.0 6.0 0.00 0.00 0.00 100 1018.0
20180918220112 66 141 4.0 9.0 0.00 0.00 0.00 100 1018.0
20180918215608 66 142 5.0 9.0 0.00 0.00 0.00 100 1018.0
20180918215108 66 131 6.0 9.0 0.00 0.00 0.00 100 1018.0
20180918214608 66 146 6.0 9.0 0.00 0.00 0.00 100 1018.0
20180918214107 66 140 7.0 8.0 0.00 0.00 0.00 100 1018.0
20180918213607 67 144 6.0 9.0 0.00 0.00 0.00 100 1018.0
20180918213107 66 130 5.0 7.0 0.00 0.00 0.00 100 1018.0
20180918212608 66 147 5.0 8.0 0.00 0.00 0.00 100 1018.0
20180918212107 67 149 5.0 9.0 0.00 0.00 0.00 100 1018.0
20180918211751 67 144 6.0 10.0 0.00 0.00 0.00 100 1018.0
20180918211141 67 124 5.0 10.0 0.00 0.00 0.00 100 1018.0
20180918205711 67 137 5.0 14.0 0.00 0.00 0.00 100 1018.0
20180918203107 67 140 7.0 12.0 0.00 0.00 0.00 100 1018.0
20180918202607 67 141 7.0 9.0 0.00 0.00 0.00 100 1018.0
20180918202108 64 118 5.0 7.0 0.00 0.00 0.00 100 1018.0
20180918201608 64 155 5.0 6.0 0.00 0.00 0.00 100 1018.0
20180918201107 65 182 4.0 6.0 0.00 0.00 0.00 100 1018.0
20180918200607 66 143 4.0 9.0 0.00 0.00 0.00 100 1018.0
20180918200108 66 133 6.0 10.0 0.00 0.00 0.00 100 1018.0
20180918195617 67 129 5.0 8.0 0.00 0.00 0.00 100 1018.0
20180918195108 67 129 5.0 7.0 0.00 0.00 0.00 100 1018.0
20180918194609 67 126 6.0 9.0 0.00 0.00 0.00 100 1018.0
20180918194107 68 136 7.0 12.0 0.00 0.00 0.00 100 1018.0
20180918193607 68 135 9.0 10.0 0.00 0.00 0.00 100 1017.0
20180918193108 68 135 7.0 13.0 0.00 0.00 0.00 100 1017.0
20180918192607 68 137 7.0 13.0 0.00 0.00 0.00 100 1017.0
20180918192107 68 130 8.0 13.0 0.00 0.00 0.00 100 1018.0
20180918191608 68 127 9.0 13.0 0.00 0.00 0.00 100 1018.0
20180918191108 68 130 10.0 13.0 0.00 0.00 0.00 100 1018.0
20180918190608 67 135 5.0 7.0 0.00 0.00 0.00 100 1017.0
20180918190108 67 155 5.0 9.0 0.00 0.00 0.00 100 1017.0
20180918185608 67 129 5.0 7.0 0.00 0.00 0.00 100 1017.0
20180918185108 68 154 4.0 10.0 0.00 0.00 0.00 100 1017.0
20180918184608 68 140 6.0 10.0 0.00 0.00 0.00 100 1017.0
20180918184108 68 127 6.0 10.0 0.00 0.00 0.00 100 1017.0
20180918183608 68 127 7.0 12.0 0.00 0.00 0.00 100 1017.0
20180918183110 68 135 5.0 7.0 0.00 0.00 0.00 100 1017.0
20180918182608 69 141 7.0 10.0 0.00 0.00 0.00 100 1017.0
20180918182107 69 130 8.0 12.0 0.00 0.00 0.00 100 1017.0
20180918181607 69 145 8.0 12.0 0.00 0.00 0.00 100 1017.0
20180918181107 69 121 7.0 10.0 0.00 0.00 0.00 100 1017.0
20180918180607 69 137 7.0 12.0 0.00 0.00 0.00 100 1016.0
20180918180107 69 133 7.0 10.0 0.00 0.00 0.00 100 1016.0
20180918175607 69 121 7.0 12.0 0.00 0.00 0.00 100 1016.0
20180918175107 69 143 7.0 9.0 0.00 0.00 0.00 100 1016.0
20180918174608 70 139 6.0 10.0 0.00 0.00 0.00 100 1016.0
20180918174108 69 130 7.0 9.0 0.00 0.00 0.00 100 1016.0
20180918173608 70 132 7.0 10.0 0.00 0.00 0.00 100 1017.0
20180918173107 70 135 6.0 8.0 0.00 0.00 0.00 100 1017.0
20180918172608 70 130 7.0 12.0 0.00 0.00 0.00 100 1017.0
20180918172107 70 128 6.0 7.0 0.00 0.00 0.00 100 1017.0
20180918171608 70 124 5.0 8.0 0.00 0.00 0.00 100 1017.0
20180918171107 70 125 5.0 7.0 0.00 0.00 0.00 100 1017.0
20180918170608 70 125 6.0 8.0 0.00 0.00 0.00 100 1017.0
20180918170108 70 118 4.0 7.0 0.00 0.00 0.00 100 1017.0
20180918165607 71 115 6.0 7.0 0.00 0.00 0.00 100 1017.0
20180918165107 71 129 5.0 8.0 0.00 0.00 0.00 100 1017.0